Regional Weather Roundup
Issued by NWS

Home | Current Version | Previous Version | Graphics & Text | Print | Product List | Glossary On
Versions: 1 2 3 4 5 6 7 8 9 10 11 12 13 14 15 16 17 18 19 20 21 22 23 24 25 26 27 28 29 30 31 32 33 34 35 36 37 38 39 40 41 42 43 44 45 46 47 48 49 50
000
ASUS43 KDMX 211706
RWRIA

WEATHER ROUNDUP FOR IOWA
NATIONAL WEATHER SERVICE DES MOINES IA
1200 PM CDT SAT OCT 21 2017

NOTE: "FAIR" INDICATES FEW OR NO CLOUDS BELOW 12,000 FEET WITH NO
SIGNIFICANT WEATHER AND/OR OBSTRUCTIONS TO VISIBILITY.

* - THESE STATIONS ARE NOT NWS STATIONS...THUS NOT UNDER NWS
QUALITY CONTROL.  THEY ALSO DO NOT REPORT WEATHER SUCH
AS PRECIPITATION OR FOG.

IAZ001>003-012>014-020>022-031>034-043>046-211800-
   NORTHWEST IOWA

CITY           SKY/WX    TMP DP  RH WIND       PRES   REMARKS
CHEROKEE *     CLOUDY    68  63  85 S23G29    29.63S
DENISON *      CLOUDY    68  63  83 S22G30    29.68S
LE MARS *      CLOUDY    72  63  73 S24G35    29.59S
ORANGE CITY *  PTSUNNY   70  64  83 S21G29    29.60S
SHELDON *      CLOUDY    70  63  78 S18G31    29.59S
SIOUX CITY     CLOUDY    71  63  75 S13G20    29.61S
SPENCER        CLOUDY    67  62  84 S23G29    29.63F
STORM LAKE *   CLOUDY    68  63  83 S28G36    29.65S
$$

IAZ055>058-069>071-079>083-090>094-211800-
   SOUTHWEST IOWA

CITY           SKY/WX    TMP DP  RH WIND       PRES   REMARKS
ATLANTIC *     CLOUDY    68  61  77 S14G22    29.72S
AUDUBON *      CLOUDY    66  63  88 S14G28    29.72F
CLARINDA *     CLOUDY    70  63  78 S14G22    29.77S
COUNCIL BLFS * CLOUDY    72  66  83 S25G37    29.67S
CRESTON *      CLOUDY    66  61  82 S21G33    29.80S
HARLAN  *      CLOUDY    68  63  83 S17G30    29.72S
LAMONI         LGT RAIN  67  60  78 S16       29.82S
RED OAK *      CLOUDY    70  63  78 S17G24    29.72S
SHENANDOAH *   CLOUDY    72  63  73 S21G28    29.72F
$$

IAZ047>049-059>061-072>074-084-211800-
   CENTRAL IOWA

CITY           SKY/WX    TMP DP  RH WIND       PRES   REMARKS
AMES           CLOUDY    67  60  78 S22G29    29.77S
ANKENY *       CLOUDY    68  59  73 S17G24    29.80R
BOONE *        CLOUDY    66  59  77 S16G29    29.75S
CHARITON *     CLOUDY    72  59  64 S26G37    29.81S
DES MOINES     CLOUDY    68  59  73 S18G28    29.79R
GRINNELL*      MOSUNNY   73  58  60 S28G35    29.83S
KNOXVILLE *    PTSUNNY   72  59  64 S25G31    29.79S
MARSHALLTOWN   CLOUDY    69  58  67 S20       29.80R
NEWTON *       PTSUNNY   73  59  60 S23G35    29.80S
PELLA *        MOSUNNY   73  58  59 S17       29.83S
PERRY *        CLOUDY    69  62  77 S21G28    29.75S
$$

IAZ004>006-015-016-023>025-035-036-211800-
   NORTH CENTRAL IOWA

CITY           SKY/WX    TMP DP  RH WIND       PRES   REMARKS
ALGONA *       CLOUDY    64  64 100 S20G29    29.69F
CLARION *      CLOUDY    64  63  94 S22G29    29.74S
ESTHERVILLE    CLOUDY    62  62 100 S15G28    29.65F
FORT DODGE *   CLOUDY    65  60  84 S13G22    29.73R
MASON CITY     CLOUDY    63  59  87 S15       29.78S
FOREST CITY *  DRIZZLE   63  61  94 S17G25    29.74S
WEBSTER CITY * CLOUDY    66  59  77 S13G23    29.72F
IOWA FALLS *   CLOUDY    67  59  75 S16G25    29.79S
$$

IAZ007>011-017>019-026>030-037>042-050>054-066-211800-
   NORTHEAST IOWA

CITY           SKY/WX    TMP DP  RH WIND       PRES   REMARKS
CEDAR RAPIDS   SUNNY     73  57  57 S23G32    29.84F
CHARLES CITY * CLOUDY    64  59  82 S16G24    29.80F
DECORAH *      CLOUDY    66  57  72 S14G21    29.83F
DUBUQUE        SUNNY     71  56  58 S25       29.90F
MONTICELLO *   SUNNY     73  57  56 S20G30    29.88F
OELWEIN *      PTSUNNY   70  59  68 S18G26    29.83F
WATERLOO       CLOUDY    67  56  67 S15G25    29.82R
$$

IAZ064-065-067-068-078-211800-
   EAST CENTRAL IOWA

CITY           SKY/WX    TMP DP  RH WIND       PRES   REMARKS
DAVENPORT      SUNNY     75  56  51 S17G24    29.95F
IOWA CITY      LGT RAIN  75  58  55 S23G31    29.88F
MUSCATINE *    SUNNY     77  57  50 S18G25    29.90F
QUAD CITIES    SUNNY     75  56  51 S18G26    29.92F
$$

IAZ062-063-075>077-085>089-095>099-211800-
   SOUTHEAST IOWA

CITY           SKY/WX    TMP DP  RH WIND       PRES   REMARKS
BURLINGTON     SUNNY     74  60  61 S17G26    29.93F
FAIRFIELD *    SUNNY     73  57  56 S17G26    29.86F
FORT MADISON * SUNNY     75  61  60 S17       29.94S
KEOKUK *       SUNNY     75  61  60 S17G28    29.92F
OSKALOOSA *      N/A     73  59  62 S25G37    29.83F
OTTUMWA        SUNNY     74  60  61 S23G39    29.84F
WASHINGTON *   SUNNY     75  59  57 S20G31    29.88F
$$

ABBREVIATIONS USED IN REMARKS
   TC - TEMPERATURES IN CELSIUS
  WCI - WIND CHILL INDEX
   HX - HEAT INDEX
  VSB - VISIBILITY
$$





USA.gov is the U.S. government's official web portal to all federal, state and local government web resources and services.